TimeCDT,TemperatureF,Dew PointF,Humidity,Sea Level PressureIn,VisibilityMPH,Wind Direction,Wind SpeedMPH,Gust SpeedMPH,PrecipitationIn,Events,Conditions,WindDirDegrees,DateUTC
12:56 AM,57.0,55.9,96,29.81,-9999.0,Calm,Calm,-,N/A,,Unknown,0,2013-08-06 05:56:00
1:56 AM,59.0,57.9,96,29.80,-9999.0,SSW,3.5,-,N/A,,Unknown,210,2013-08-06 06:56:00
2:56 AM,59.0,57.9,96,29.76,-9999.0,South,5.8,-,N/A,,Unknown,170,2013-08-06 07:56:00
3:56 AM,60.1,59.0,96,29.72,-9999.0,SE,3.5,-,N/A,,Unknown,130,2013-08-06 08:56:00
4:56 AM,60.1,59.0,96,29.73,-9999.0,South,6.9,-,N/A,,Unknown,190,2013-08-06 09:56:00
5:56 AM,61.0,60.1,97,29.72,-9999.0,SSE,4.6,-,N/A,,Unknown,160,2013-08-06 10:56:00
6:56 AM,61.0,60.1,97,29.71,-9999.0,South,4.6,-,N/A,,Unknown,170,2013-08-06 11:56:00
7:56 AM,64.0,61.0,90,29.71,-9999.0,Variable,6.9,-,N/A,,Unknown,0,2013-08-06 12:56:00
8:56 AM,70.0,60.1,71,29.70,-9999.0,WNW,12.7,21.9,N/A,,Unknown,290,2013-08-06 13:56:00
9:56 AM,75.0,62.1,64,29.68,-9999.0,NW,11.5,19.6,N/A,,Unknown,310,2013-08-06 14:56:00
10:56 AM,77.0,62.1,60,29.69,-9999.0,NW,9.2,-,N/A,,Unknown,310,2013-08-06 15:56:00
11:56 AM,79.0,63.0,58,29.69,-9999.0,WNW,11.5,19.6,N/A,,Unknown,290,2013-08-06 16:56:00
12:56 PM,80.1,64.9,60,29.69,-9999.0,West,10.4,-,N/A,,Unknown,280,2013-08-06 17:56:00
1:56 PM,82.0,66.0,58,29.68,-9999.0,NW,10.4,-,N/A,,Unknown,310,2013-08-06 18:56:00
2:56 PM,82.0,64.0,54,29.67,-9999.0,West,13.8,24.2,N/A,,Unknown,270,2013-08-06 19:56:00
3:56 PM,82.9,62.1,49,29.65,-9999.0,West,12.7,24.2,N/A,,Unknown,270,2013-08-06 20:56:00
4:56 PM,82.9,62.1,49,29.63,-9999.0,WNW,17.3,23.0,N/A,,Unknown,290,2013-08-06 21:56:00
5:56 PM,77.0,59.0,54,29.70,-9999.0,North,34.5,49.5,N/A,,Unknown,360,2013-08-06 22:56:00
6:04 PM,71.6,55.4,57,29.76,-9999.0,North,26.5,49.5,N/A,,Unknown,360,2013-08-06 23:04:00
6:56 PM,66.9,61.0,81,29.76,-9999.0,North,11.5,-,N/A,,Unknown,10,2013-08-06 23:56:00
7:56 PM,68.0,62.1,81,29.76,-9999.0,North,6.9,-,N/A,,Unknown,10,2013-08-07 00:56:00
8:56 PM,64.9,63.0,93,29.78,-9999.0,NNW,5.8,-,N/A,,Unknown,330,2013-08-07 01:56:00
9:56 PM,64.0,61.0,90,29.82,-9999.0,North,9.2,-,N/A,,Unknown,350,2013-08-07 02:56:00
10:56 PM,64.0,60.1,87,29.83,-9999.0,NNE,10.4,-,N/A,,Unknown,20,2013-08-07 03:56:00
11:56 PM,63.0,60.1,90,29.85,-9999.0,North,8.1,-,N/A,,Unknown,10,2013-08-07 04:56:00